Regional Weather Roundup
Issued by NWS

Home | Current Version | Previous Version | Text Only | Print | Product List | Glossary Off
Versions: 1 2 3 4 5 6 7 8 9 10 11 12 13 14 15 16 17 18 19 20 21 22 23 24 25 26 27 28 29 30 31 32 33 34 35 36 37 38 39 40 41 42 43 44 45 46 47 48 49 50

000
ASUS43 KFSD 201802
RWRSD

WEATHER ROUNDUP FOR SOUTH DAKOTA
NATIONAL WEATHER SERVICE SIOUX FALLS SD
100 PM CDT THU JUL 20 2017

NOTE: "FAIR" INDICATES FEW OR NO CLOUDS BELOW 12,000 FEET WITH NO
SIGNIFICANT WEATHER AND/OR OBSTRUCTIONS TO VISIBILITY.


SDZ001>005-009-010-012>017-201900-
NORTHWEST AND NORTH CENTRAL SOUTH DAKOTA

CITY           SKY/WX    TMP DP  RH WIND       PRES   REMARKS
BUFFALO          N/A     93  59  31 S26G32    29.90F
FAITH            N/A     88  67  49 S20       30.00F
MOBRIDGE       CLOUDY    88  61  40 SE20      29.98F
$$

SDZ012>016-024>037-041>051-057-063-072>074-201900-
SOUTHWEST AND SOUTH CENTRAL SOUTH DAKOTA

CITY           SKY/WX    TMP DP  RH WIND       PRES   REMARKS
RAPID CTY ARPT SUNNY     93  58  30 SE16G22   30.04F
PIERRE         SUNNY     87  66  49 SE7       30.00F
CUSTER         SUNNY     84  50  30 VRB7G20   30.21F
ELLSWORTH AFB  SUNNY     92  59  33 S17       30.03F
PHILIP         SUNNY     93  64  38 VRB7      30.00
PINE RIDGE     SUNNY     88  62  41 VRB5      30.09F
SPEARFISH      LGT RAIN  93  55  27 VRB7G13   30.05F
WINNER         FAIR      94  67  41 S10G20    30.01F HX  97
$$

SDZ004>011-016>023-039-040-201900-
NORTHEAST SOUTH DAKOTA

CITY           SKY/WX    TMP DP  RH WIND       PRES   REMARKS
ABERDEEN       SUNNY     85  65  51 SE9       30.02F
WATERTOWN      SUNNY     80  65  59 SE14      30.06S
BROOKINGS      PTSUNNY   81  66  60 SE8       30.08R
SISSETON         N/A     86  67  52 E3        30.02S
$$

SDZ017-020-022-023-036>040-048>070-201900-
SOUTHEAST SOUTH DAKOTA

CITY           SKY/WX    TMP DP  RH WIND       PRES   REMARKS
SIOUX FALLS    CLOUDY    84  71  65 VRB7      30.05S
HURON          SUNNY     85  65  51 E10       30.01F
CHAMBERLAIN    SUNNY     91  73  54 E6        30.02S HX  99
MITCHELL       MOSUNNY   86  70  58 SE13      30.01F
YANKTON        CLOUDY    83  71  67 E6        30.02R
$$

ABBREVIATIONS USED IN REMARKS
   TC - TEMPERATURE IN CELSIUS
  WCI - WIND CHILL INDEX
   HX - HEAT INDEX
  VSB - VISIBILITY




USA.gov is the U.S. government's official web portal to all federal, state and local government web resources and services.